TimeAKDT,TemperatureF,Dew PointF,Humidity,Sea Level PressureIn,VisibilityMPH,Wind Direction,Wind SpeedMPH,Gust SpeedMPH,PrecipitationIn,Events,Conditions,WindDirDegrees,DateUTC
12:16 AM,42.8,39.2,87,30.34,10.0,South,4.6,-,N/A,,Mostly Cloudy,190,2011-10-25 08:16:00
12:36 AM,42.8,39.2,87,30.34,10.0,SE,4.6,-,N/A,,Overcast,140,2011-10-25 08:36:00
12:56 AM,44.6,41.0,87,30.33,10.0,East,11.5,-,N/A,,Overcast,100,2011-10-25 08:56:00
1:16 AM,44.6,39.2,81,30.33,10.0,ESE,10.4,-,N/A,,Overcast,110,2011-10-25 09:16:00
1:36 AM,44.6,41.0,87,30.33,10.0,ESE,9.2,-,N/A,,Overcast,120,2011-10-25 09:36:00
1:56 AM,44.6,39.2,81,30.33,10.0,SE,4.6,-,N/A,,Overcast,140,2011-10-25 09:56:00
2:16 AM,44.6,39.2,81,30.33,10.0,SE,4.6,-,N/A,,Overcast,130,2011-10-25 10:16:00
2:36 AM,44.6,39.2,81,30.33,10.0,SE,9.2,-,N/A,,Overcast,130,2011-10-25 10:36:00
2:56 AM,44.6,39.2,81,30.33,10.0,East,12.7,-,N/A,,Overcast,100,2011-10-25 10:56:00
3:16 AM,44.6,39.2,81,30.32,10.0,ESE,12.7,-,N/A,,Overcast,110,2011-10-25 11:16:00
3:36 AM,44.6,39.2,81,30.32,10.0,East,10.4,-,N/A,,Overcast,100,2011-10-25 11:36:00
3:56 AM,44.6,39.2,81,30.32,10.0,NE,10.4,-,N/A,,Overcast,50,2011-10-25 11:56:00
4:16 AM,44.6,39.2,81,30.31,10.0,East,5.8,-,N/A,,Overcast,80,2011-10-25 12:16:00
4:36 AM,46.4,37.4,71,30.32,10.0,East,6.9,-,N/A,,Mostly Cloudy,100,2011-10-25 12:36:00
4:56 AM,44.6,39.2,81,30.31,10.0,East,6.9,-,N/A,,Mostly Cloudy,100,2011-10-25 12:56:00
5:16 AM,44.6,39.2,81,30.31,10.0,ESE,5.8,-,N/A,,Overcast,110,2011-10-25 13:16:00
5:36 AM,46.4,37.4,71,30.30,10.0,East,8.1,-,N/A,,Mostly Cloudy,100,2011-10-25 13:36:00
5:56 AM,44.6,37.4,76,30.30,10.0,SE,13.8,-,N/A,,Mostly Cloudy,140,2011-10-25 13:56:00
6:16 AM,46.4,37.4,71,30.29,10.0,ESE,12.7,-,N/A,,Mostly Cloudy,120,2011-10-25 14:16:00
6:36 AM,46.4,37.4,71,30.28,10.0,SE,12.7,-,N/A,,Mostly Cloudy,140,2011-10-25 14:36:00
6:56 AM,46.4,37.4,71,30.28,10.0,SSE,10.4,-,N/A,,Mostly Cloudy,160,2011-10-25 14:56:00
7:16 AM,46.4,37.4,71,30.27,10.0,SE,15.0,-,N/A,,Mostly Cloudy,130,2011-10-25 15:16:00
7:36 AM,46.4,37.4,71,30.27,10.0,SE,13.8,-,N/A,,Mostly Cloudy,140,2011-10-25 15:36:00
7:56 AM,46.4,37.4,71,30.26,10.0,ESE,16.1,20.7,N/A,,Overcast,120,2011-10-25 15:56:00
8:16 AM,46.4,37.4,71,30.26,10.0,ESE,12.7,21.9,N/A,,Overcast,110,2011-10-25 16:16:00
8:36 AM,46.4,37.4,71,30.25,10.0,SE,18.4,23.0,N/A,,Overcast,130,2011-10-25 16:36:00
8:56 AM,46.4,37.4,71,30.24,10.0,ESE,17.3,-,N/A,,Overcast,120,2011-10-25 16:56:00
9:16 AM,44.6,39.2,81,30.25,10.0,ESE,13.8,-,N/A,,Overcast,110,2011-10-25 17:16:00
9:36 AM,44.6,39.2,81,30.24,10.0,ESE,16.1,20.7,N/A,,Overcast,120,2011-10-25 17:36:00
9:56 AM,46.4,37.4,71,30.23,10.0,ESE,16.1,-,N/A,,Overcast,120,2011-10-25 17:56:00
10:16 AM,44.6,39.2,81,30.23,10.0,ESE,13.8,-,N/A,,Overcast,120,2011-10-25 18:16:00
10:36 AM,44.6,39.2,81,30.21,10.0,ESE,19.6,-,N/A,,Overcast,120,2011-10-25 18:36:00
10:56 AM,44.6,39.2,81,30.21,10.0,ESE,17.3,21.9,N/A,,Overcast,110,2011-10-25 18:56:00
11:16 AM,44.6,39.2,81,30.20,10.0,East,15.0,21.9,N/A,,Overcast,100,2011-10-25 19:16:00
11:36 AM,44.6,39.2,81,30.18,10.0,ESE,17.3,21.9,N/A,,Overcast,110,2011-10-25 19:36:00
11:56 AM,46.4,37.4,71,30.17,10.0,SE,18.4,23.0,N/A,,Overcast,130,2011-10-25 19:56:00
12:16 PM,46.4,39.2,76,30.16,10.0,SE,17.3,-,N/A,,Overcast,130,2011-10-25 20:16:00
12:36 PM,46.4,39.2,76,30.14,10.0,ESE,17.3,24.2,N/A,,Overcast,120,2011-10-25 20:36:00
12:56 PM,46.4,39.2,76,30.12,10.0,ESE,15.0,-,N/A,,Overcast,110,2011-10-25 20:56:00
1:16 PM,46.4,37.4,71,30.11,10.0,ESE,19.6,26.5,N/A,,Overcast,120,2011-10-25 21:16:00
1:36 PM,44.6,39.2,81,30.10,10.0,ESE,15.0,24.2,N/A,,Overcast,120,2011-10-25 21:36:00
1:56 PM,44.6,39.2,81,30.08,10.0,ESE,18.4,23.0,N/A,,Overcast,120,2011-10-25 21:56:00
2:16 PM,44.6,39.2,81,30.06,10.0,ESE,18.4,25.3,N/A,,Overcast,120,2011-10-25 22:16:00
2:36 PM,44.6,39.2,81,30.04,10.0,ESE,20.7,28.8,N/A,,Overcast,120,2011-10-25 22:36:00
2:56 PM,44.6,39.2,81,30.02,10.0,ESE,21.9,27.6,N/A,,Overcast,110,2011-10-25 22:56:00
3:16 PM,46.4,39.2,76,30.02,10.0,ESE,19.6,26.5,N/A,,Overcast,120,2011-10-25 23:16:00
3:36 PM,46.4,39.2,76,30.00,10.0,ESE,18.4,32.2,N/A,,Overcast,110,2011-10-25 23:36:00
3:56 PM,46.4,39.2,76,29.97,10.0,ESE,19.6,23.0,N/A,,Overcast,120,2011-10-25 23:56:00
4:16 PM,44.6,39.2,81,29.96,10.0,ESE,17.3,23.0,N/A,,Overcast,120,2011-10-26 00:16:00
4:36 PM,44.6,37.4,76,29.94,10.0,ESE,19.6,28.8,N/A,,Overcast,120,2011-10-26 00:36:00
4:56 PM,44.6,39.2,81,29.92,10.0,ESE,18.4,24.2,N/A,,Overcast,110,2011-10-26 00:56:00
5:16 PM,44.6,37.4,76,29.89,10.0,SE,20.7,28.8,N/A,,Overcast,130,2011-10-26 01:16:00
5:36 PM,44.6,39.2,81,29.86,10.0,ESE,23.0,29.9,N/A,,Overcast,110,2011-10-26 01:36:00
5:56 PM,44.6,39.2,81,29.86,7.0,ESE,21.9,29.9,N/A,,Overcast,120,2011-10-26 01:56:00
6:16 PM,44.6,39.2,81,29.84,7.0,ESE,21.9,31.1,N/A,,Overcast,110,2011-10-26 02:16:00
6:36 PM,44.6,37.4,76,29.83,7.0,ESE,21.9,35.7,N/A,,Overcast,110,2011-10-26 02:36:00
6:56 PM,44.6,37.4,76,29.81,10.0,ESE,20.7,33.4,N/A,,Overcast,110,2011-10-26 02:56:00
7:16 PM,44.6,39.2,81,29.79,10.0,ESE,20.7,28.8,N/A,,Overcast,110,2011-10-26 03:16:00
7:36 PM,44.6,37.4,76,29.77,10.0,SE,23.0,31.1,N/A,,Overcast,130,2011-10-26 03:36:00
7:56 PM,42.8,37.4,81,29.76,7.0,ESE,21.9,29.9,N/A,,Overcast,120,2011-10-26 03:56:00
8:16 PM,42.8,37.4,81,29.74,7.0,ESE,21.9,31.1,N/A,,Overcast,110,2011-10-26 04:16:00
8:36 PM,42.8,37.4,81,29.73,7.0,ESE,23.0,27.6,N/A,,Overcast,120,2011-10-26 04:36:00
8:56 PM,42.8,37.4,81,29.71,7.0,ESE,23.0,29.9,N/A,,Overcast,120,2011-10-26 04:56:00
9:16 PM,42.8,37.4,81,29.70,7.0,ESE,20.7,28.8,N/A,,Overcast,120,2011-10-26 05:16:00
9:36 PM,42.8,37.4,81,29.68,7.0,ESE,24.2,33.4,N/A,,Overcast,120,2011-10-26 05:36:00
9:56 PM,42.8,37.4,81,29.68,7.0,ESE,20.7,31.1,N/A,,Overcast,120,2011-10-26 05:56:00
10:16 PM,42.8,37.4,81,29.65,7.0,ESE,25.3,29.9,N/A,,Overcast,120,2011-10-26 06:16:00
10:36 PM,42.8,37.4,81,29.64,7.0,ESE,23.0,31.1,N/A,,Overcast,120,2011-10-26 06:36:00
10:56 PM,42.8,37.4,81,29.62,7.0,ESE,24.2,29.9,N/A,,Overcast,110,2011-10-26 06:56:00
11:16 PM,41.0,37.4,87,29.60,5.0,ESE,21.9,29.9,N/A,,Overcast,110,2011-10-26 07:16:00
11:36 PM,41.0,35.6,81,29.58,5.0,ESE,25.3,32.2,N/A,,Overcast,120,2011-10-26 07:36:00
11:56 PM,41.0,35.6,81,29.56,6.0,ESE,25.3,31.1,N/A,,Overcast,120,2011-10-26 07:56:00